This demonstration page uses our WeatherBlox Daily Observations layout. Learn more.

Left ArrowRight Arrow

39.12711, -84.51439

Hourly Observations for March 17, 2023

Temp ( °F °C ) Dew Point ( °F °C ) Humidity (%) Winds ( mph kmh ) Pressure ( in mb ) Visibility ( mi km ) Precip ( " mm )
12:53 am 00:53 Cloudy 60 15.6 31 -0.6 33 33 SW 22 35 29.72 1006 10 16 0.00 0.00
1:53 am 01:53 Cloudy with Light Rain 59 15 38 3.3 45 45 SSW 29 46 29.70 1006 10 16 0.01 0.13
2:53 am 02:53 Cloudy with Light Rain 53 11.7 44 6.7 71 71 SSW 16 26 29.70 1006 10 16 0.01 0.13
3:53 am 03:53 Cloudy with Light Rain 49 9.4 47 8.3 93 93 SSW 10 17 29.69 1005 5 8 0.06 1.52
4:13 am 04:13 Cloudy with Rain 49 9.4 47 8.3 93 93 S 7 11 29.68 1005 5 8 0.03 0.76
4:53 am 04:53 Cloudy with Light Rain 49 9.4 48 8.9 97 97 S 13 20 29.62 1003 8 13 0.05 1.27
5:53 am 05:53 Cloudy with Light Rain 50 10 49 9.4 96 96 S 16 26 29.61 1003 7 11 0.02 0.51
6:53 am 06:53 Cloudy with Light Rain 51 10.6 50 10 96 96 SSW 16 26 29.59 1002 7 11 0.03 0.76
7:53 am 07:53 Cloudy 51 10.6 50 10 96 96 SSW 14 22 29.58 1002 7 11 0.01 0.13
8:53 am 08:53 Cloudy with Mist and Fog 52 11.1 51 10.6 97 97 SSW 16 26 29.58 1002 3 5 0.02 0.51
9:39 am 09:39 Cloudy with Light Rain 47 8.3 45 7.2 93 93 W 21 33 29.63 1003 3 5 0.01 0.25
9:53 am 09:53 Cloudy with Light Rain 46 7.8 44 6.7 93 93 W 21 33 29.62 1003 3 5 0.01 0.25
10:53 am 10:53 Cloudy with Light Rain 42 5.6 40 4.4 92 92 W 16 26 29.67 1005 4 6 0.02 0.51
11:53 am 11:53 Cloudy with Light Rain 40 4.4 38 3.3 93 93 WNW 12 19 29.72 1007 5 8 0.01 0.25
12:53 pm 12:53 Cloudy 39 3.9 35 1.7 86 86 W 18 30 29.75 1007 10 16 0.01 0.25
1:39 pm 13:39 Cloudy 38 3.3 35 1.7 89 89 W 16 26 29.78 1009 10 16 0.00 0.00
1:53 pm 13:53 Cloudy 38 3.3 34 1.1 85 85 W 16 26 29.77 1008 10 16 0.00 0.00
2:16 pm 14:16 Cloudy 38 3.3 33 0.6 82 82 WNW 14 22 29.81 1010 10 16 0.00 0.00
2:53 pm 14:53 Cloudy 37 2.8 33 0.6 85 85 W 20 31 29.80 1009 10 16 0.00 0.00
3:39 pm 15:39 Cloudy 37 2.8 31 -0.6 78 78 WNW 17 28 29.84 1011 10 16 0.00 0.00
3:53 pm 15:53 Cloudy 37 2.8 30 -1.1 75 75 WNW 14 22 29.83 1010 10 16 0.00 0.00
4:53 pm 16:53 Cloudy 37 2.8 29 -1.7 72 72 W 15 24 29.85 1011 10 16 0.00 0.00
5:53 pm 17:53 Cloudy 38 3.3 28 -2.2 67 67 WNW 9 15 29.87 1012 10 16 0.00 0.00
6:11 pm 18:11 Cloudy 37 2.8 26 -3.3 64 64 NW 10 17 29.89 1012 10 16 0.00 0.00
6:53 pm 18:53 Mostly Cloudy 36 2.2 26 -3.3 67 67 W 10 17 29.91 1013 10 16 0.00 0.00
7:53 pm 19:53 Mostly Cloudy 35 1.7 25 -3.9 66 66 W 9 15 29.94 1014 10 16 0.00 0.00
8:53 pm 20:53 Partly Cloudy 35 1.7 24 -4.4 64 64 W 7 11 29.96 1015 10 16 0.00 0.00
9:53 pm 21:53 Mostly Clear 34 1.1 22 -5.6 61 61 W 9 15 29.98 1015 10 16 0.00 0.00
10:53 pm 22:53 Cloudy 32 0 24 -4.4 72 72 SW 5 7 30.00 1016 10 16 0.00 0.00
11:53 pm 23:53 Cloudy 31 -0.6 26 -3.3 82 82 SSW 7 11 30.01 1016 10 16 0.00 0.00

Powered by AerisWeather